Regional Weather Roundup
Issued by NWS

Home | Current Version | Previous Version | Graphics & Text | Print | Product List | Glossary Off
Versions: 1 2 3 4 5 6 7 8 9 10 11 12 13 14 15 16 17 18 19 20 21 22 23 24 25 26 27 28 29 30 31 32 33 34 35 36 37 38 39 40 41 42 43 44 45 46 47 48 49 50

743
ASUS43 KMKX 280011
RWRWI

WISCONSIN REGIONAL WEATHER ROUNDUP
NATIONAL WEATHER SERVICE MILWAUKEE/SULLIVAN WI
600 PM CST MON FEB 27 2017

NOTE: "FAIR" INDICATES FEW OR NO CLOUDS BELOW 12,000 FEET WITH NO
SIGNIFICANT WEATHER AND/OR OBSTRUCTIONS TO VISIBILITY.

WIZ001-002-006>008-014>016-023>028-280100-
NORTHWEST WISCONSIN

CITY           SKY/WX    TMP DP  RH WIND       PRES   REMARKS
SUPERIOR ARPT  CLOUDY    28  26  89 E8        29.91F WCI  20
6HR MIN TEMP:  28; 6HR MAX TEMP:  31;

ASHLAND        CLOUDY    29  24  82 NE7       29.93S WCI  22
6HR MIN TEMP:  28; 6HR MAX TEMP:  40;

HAYWARD        CLOUDY    36  16  44 S7        29.91R WCI  30
6HR MIN TEMP:  36; 6HR MAX TEMP:  45;

SIREN          CLOUDY    39  17  40 S9        29.90R WCI  33
6HR MIN TEMP:  39; 6HR MAX TEMP:  45;

CUMBERLAND     CLOUDY    34  21  60 SE8       29.91S WCI  27
RICE LAKE      PTCLDY    36  22  57 SE7       29.94R WCI  31
6HR MIN TEMP:  36; 6HR MAX TEMP:  41;

CHETEK         PTCLDY    36  22  56 SE5       29.93S WCI  32
6HR MIN TEMP:  36; 6HR MAX TEMP:  40;

LADYSMITH      MOCLDY    37  20  49 S6        29.95S WCI  32
6HR MIN TEMP:  37; 6HR MAX TEMP:  41;

EAU CLAIRE     CLOUDY    39  21  48 S7        29.94S WCI  34
6HR MIN TEMP:  36; 6HR MAX TEMP:  41;

MENOMONIE      CLOUDY    37  23  56 E7        29.93S WCI  32
6HR MIN TEMP:  37; 6HR MAX TEMP:  41;

NEW RICHMOND   CLEAR     37  20  51 S8        29.91S WCI  30
6HR MIN TEMP:  37; 6HR MAX TEMP:  42;

OSCEOLA        PTCLDY    36  20  53 SE6       29.93R WCI  31
6HR MIN TEMP:  36; 6HR MAX TEMP:  44;

$$

WIZ003>005-009-010-017-018-280100-
NORTH CENTRAL WISCONSIN

CITY           SKY/WX    TMP DP  RH WIND       PRES   REMARKS
MANITOWISH WTR MOCLDY    34  15  46 S5        29.93R WCI  30
6HR MIN TEMP:  34; 6HR MAX TEMP:  39;

ARBOR VITAE    PTCLDY    37  20  51 S6          N/A  WCI  32
6HR MIN TEMP:  37; 6HR MAX TEMP:  42;

WOODRUFF       PTCLDY    37  20  51 S6          N/A  WCI  32
6HR MIN TEMP:  37; 6HR MAX TEMP:  42;

RHINELANDER    CLOUDY    36  17  46 S3        29.96S
6HR MIN TEMP:  36; 6HR MAX TEMP:  40;

EAGLE RIVER    PTCLDY    35  15  44 S3        29.95R
6HR MIN TEMP:  35; 6HR MAX TEMP:  40;

LAND O LAKES   PTCLDY    35  17  48 S5        29.95S WCI  31
6HR MIN TEMP:  35; 6HR MAX TEMP:  41; 6HR PCP:  0.01;

PHILLIPS       CLOUDY    35  17  48 SE5       29.93R WCI  31
6HR MIN TEMP:  35; 6HR MAX TEMP:  39;

TOMAHAWK       CLOUDY    32  19  59 CALM      29.97R
6HR MIN TEMP:  32; 6HR MAX TEMP:  40;

MEDFORD        CLOUDY    33  18  55 SE3       29.95S
6HR MIN TEMP:  32; 6HR MAX TEMP:  38;

MERRILL        NOT AVBL
$$

WIZ029-030-035-036-043>047-280100-
CENTRAL WISCONSIN

CITY           SKY/WX    TMP DP  RH WIND       PRES   REMARKS
WAUSAU         CLEAR     38  19  46 SE6       29.97S WCI  33
6HR MIN TEMP:  37; 6HR MAX TEMP:  40;

MOSINEE        PTCLDY    37  23  56 SE9       29.99S WCI  31
MARSHFIELD     CLEAR     35  21  56 S8        29.96S WCI  29
6HR MIN TEMP:  35; 6HR MAX TEMP:  42;

STEVENS POINT  CLEAR     36  26  66 S5        30.01R WCI  32
6HR MIN TEMP:  36; 6HR MAX TEMP:  40;

WAUPACA        CLEAR     39  29  67 SE3       30.03S
6HR MIN TEMP:  39; 6HR MAX TEMP:  45;

WAUTOMA        CLEAR     38  30  73 CALM      30.03R
6HR MIN TEMP:  38; 6HR MAX TEMP:  43;

WISC RAPIDS    CLEAR     40  28  62 S5        30.01R
6HR MIN TEMP:  39; 6HR MAX TEMP:  44;

CAMP DOUGLAS   MOCLDY    39  30  70 E5        29.99S
$$

WIZ011>013-019>022-031-037>040-048>050-280100-
NORTHEAST WISCONSIN

CITY           SKY/WX    TMP DP  RH WIND       PRES   REMARKS
ANTIGO         CLEAR     33  22  63 S12       29.99R WCI  25
6HR MIN TEMP:  33; 6HR MAX TEMP:  38;

SHAWANO        CLEAR     39  26  61 SE5       30.03F
6HR MIN TEMP:  39; 6HR MAX TEMP:  44;

OCONTO         CLEAR     35  28  75 S6        30.06S WCI  30
6HR MIN TEMP:  35; 6HR MAX TEMP:  39;

STURGEON BAY   CLOUDY    35  30  82 S10       30.07S WCI  27
6HR MIN TEMP:  35; 6HR MAX TEMP:  38;

GREEN BAY      PTCLDY    36  31  82 SE7       30.05F WCI  30
6HR MIN TEMP:  36; 6HR MAX TEMP:  40;

MANITOWOC      PTCLDY    36  33  89 S7        30.07S WCI  30
6HR MIN TEMP:  36; 6HR MAX TEMP:  38; 6HR PCP: TRACE;

APPLETON       PTCLDY    36  27  69 SE7       30.02F WCI  30
CLINTONVILLE   CLEAR     36  28  75 S6        30.03S WCI  31
OSHKOSH        CLOUDY    37  30  75 E3        30.03S
6HR MIN TEMP:  37; 6HR MAX TEMP:  41;

$$

WIZ032>034-041-042-053>061-280100-
SOUTHWEST WISCONSIN

CITY           SKY/WX    TMP DP  RH WIND       PRES   REMARKS
LA CROSSE      CLEAR     43  30  60 SE7       29.96F
6HR MIN TEMP:  41; 6HR MAX TEMP:  47;

SPARTA         CLEAR     40  30  67 CALM      29.99S
6HR MIN TEMP:  40; 6HR MAX TEMP:  46;

VIROQUA        CLEAR     39  32  75 SE7       29.96F WCI  34
6HR MIN TEMP:  39; 6HR MAX TEMP:  44;

BOSCOBEL       CLOUDY    44  33  65 E3        29.98F
6HR MIN TEMP:  43; 6HR MAX TEMP:  51;

PRAIRIE DU CHI PTCLDY    46  32  59 SE6       29.96F
6HR MIN TEMP:  42; 6HR MAX TEMP:  51;

PLATTEVILLE    CLOUDY    43  33  68 SE3       29.99S
6HR MIN TEMP:  43; 6HR MAX TEMP:  50;

$$

WIZ056-057-062-063-064-067-068-280100-
SOUTH CENTRAL WISCONSIN

CITY           SKY/WX    TMP DP  RH WIND       PRES   REMARKS
REEDSBURG      CLEAR     43  32  66 CALM      30.00S
6HR MIN TEMP:  39; 6HR MAX TEMP:  46;

BARABOO/DELLS  PTCLDY    41  31  68 CALM      30.00S
6HR MIN TEMP:  39; 6HR MAX TEMP:  46;

LONE ROCK      CLEAR     41  33  73 E5        30.00F
6HR MIN TEMP:  40; 6HR MAX TEMP:  50;

MINERAL POINT  CLOUDY    45  34  65 SE5       29.98F
MADISON        CLOUDY    45  30  55 S5        30.01S
6HR MIN TEMP:  39; 6HR MAX TEMP:  49;

MIDDLETON      CLOUDY    46  32  58 S5        30.02S
6HR MIN TEMP:  43; 6HR MAX TEMP:  51;

WATERTOWN      CLOUDY    42  32  68 SE3       30.03R
6HR MIN TEMP:  41; 6HR MAX TEMP:  49;

MONROE         CLOUDY    43  32  65 SE6       30.00F
JANESVILLE     CLOUDY    48  30  49 S5        30.03R
$$

WIZ051-052-058>065-066-070>072-280100-
SOUTHEAST WISCONSIN

CITY           SKY/WX    TMP DP  RH WIND       PRES   REMARKS
MILWAUKEE      CLOUDY    43  32  65 S9        30.06S
6HR MIN TEMP:  43; 6HR MAX TEMP:  47;

WAUKESHA       PTCLDY    43  30  61 S9        30.05S
MILWAUKEE/TIMM CLEAR     45  30  57 SE6       30.05F
RACINE         CLOUDY    40  33  76 S10       30.08F WCI  33
6HR MIN TEMP:  40; 6HR MAX TEMP:  45;

KENOSHA        PTCLDY    40  33  76 SE9       30.07S WCI  34
6HR MIN TEMP:  40; 6HR MAX TEMP:  50;

FOND DU LAC    CLOUDY    40  29  64 SE6       30.03S
6HR MIN TEMP:  39; 6HR MAX TEMP:  43;

SHEBOYGAN      CLEAR     37  32  82 S5        30.05F WCI  33
6HR MIN TEMP:  36; 6HR MAX TEMP:  38;

WEST BEND      CLOUDY    37  32  81 SE3       30.05R
JUNEAU         CLOUDY    42  32  68 S8        30.04R
6HR MIN TEMP:  39; 6HR MAX TEMP:  47;

$$

LSZ147-162-280100-
LAKE SUPERIOR

STATION/POSITION TIME  TEMP    WIND        PRES    WAVE
                       AIR SEA DIR/SP/G            HT/PER
                 (UTC) (F)     (DEG/KT/KT) (MB)    (FT/S)
DEVILS ISLAND    0000   29      70/ 11/ 12 1014.8F
PORT WING        2340   29      50/  8/ 10 1013.2S
SAXON HARBOR     2330   30      80/  3/  7 1013.5R
$$

LMZ867-665-643>646-280100-
LAKE MICHIGAN

STATION/POSITION TIME  TEMP    WIND        PRES    WAVE
                       AIR SEA DIR/SP/G            HT/PER
                 (UTC) (F)     (DEG/KT/KT) (MB)    (FT/S)
CHAMBERS ISLAND  2340   35     150/  5/ 10 1017.6S
NORTHPORT PIER   2340   35     170/  5/  9 1017.9S
SISTER BAY       2335   36     180/ 14/ 17   N/A
KEWAUNEE LAKESHO 2348   36     18



USA.gov is the U.S. government's official web portal to all federal, state and local government web resources and services.